Wind_Speed
29 29 28 27 25 25 24 23 22 22 22 23 22 22 22 22 22 21 21 21 20 20 21 22 22 23 24 24 25 25 25 25 24 23 22 21 21 20 18 17 16 15 14 12 11 11 10 10 9 9 9 10 11 12 11 9 8 9 9 7 5 3 3 5 7 9 12 15 18
30 29 28 27 26 25 25 24 23 23 23 23 22 22 22 21 21 22 22 22 22 21 22 22 23 23 24 25 25 26 26 27 26 26 25 25 24 23 22 21 20 19 18 17 16 16 16 16 16 16 16 15 16 17 17 16 14 13 13 13 11 9 8 8 9 10 10 10 10
29 29 29 29 28 27 26 25 25 24 24 23 22 22 22 21 21 22 22 23 23 23 23 22 22 23 23 24 25 26 27 27 28 28 28 27 27 26 25 25 24 23 22 21 21 21 21 21 20 20 21 20 20 20 20 20 19 18 19 19 18 16 14 13 13 12 12 12 11
28 28 28 29 28 27 26 25 25 24 23 23 23 23 23 22 22 21 22 23 23 23 23 22 22 22 22 23 24 25 26 27 28 28 28 28 28 28 28 27 27 27 26 26 25 25 25 25 24 24 24 24 24 22 21 22 22 23 23 23 23 22 22 21 19 18 18 17 15
28 28 28 28 27 26 26 25 24 24 24 24 24 23 23 23 22 22 23 23 23 23 22 22 22 22 22 23 23 24 26 26 26 27 28 28 29 29 29 29 29 29 29 29 29 29 29 29 28 28 27 26 25 23 22 22 23 25 26 25 26 26 25 24 23 23 22 21 20
28 28 28 27 27 26 25 25 24 24 24 24 24 24 23 22 22 22 22 22 22 22 22 22 22 22 22 23 23 24 25 25 26 26 27 27 28 29 29 30 30 29 29 30 31 31 32 32 31 30 29 27 25 24 23 22 23 26 27 28 28 27 27 26 25 25 25 25 25
28 28 28 28 27 26 26 25 24 24 24 24 24 24 23 23 23 22 22 23 23 22 22 22 22 22 22 22 23 23 23 24 25 25 26 26 27 27 28 28 28 29 29 30 31 32 33 33 32 30 28 27 26 25 24 23 24 26 28 29 28 28 28 27 27 27 28 29 29
28 28 28 27 27 27 26 25 24 24 24 24 24 23 23 22 22 22 22 23 23 22 22 22 22 22 22 22 23 23 23 23 24 24 25 25 25 25 26 26 27 27 28 29 31 32 33 33 31 29 28 26 25 25 25 24 25 27 28 27 26 27 28 28 29 29 29 31 31
27 27 27 27 27 26 26 25 25 25 24 24 23 23 22 22 22 22 22 22 22 21 21 21 21 22 22 23 23 23 24 24 23 23 24 24 24 24 24 24 25 26 27 28 30 32 32 31 30 28 27 26 25 25 25 26 27 28 27 25 24 25 26 28 29 30 30 30 30
26 25 25 25 25 25 25 25 25 25 24 24 23 23 23 22 22 22 22 21 21 21 21 21 21 22 22 23 23 24 24 24 23 23 23 23 23 23 23 23 23 24 25 27 29 30 31 30 28 27 26 25 25 25 25 26 27 26 25 23 23 23 25 27 29 30 30 30 29
25 24 24 23 23 24 24 24 24 25 24 24 23 23 23 23 23 22 21 20 21 21 22 22 22 22 23 23 23 23 23 23 23 22 22 22 22 22 22 22 23 23 24 26 27 28 28 28 27 26 25 25 24 24 24 25 25 25 24 24 23 23 23 25 28 29 30 29 28
25 25 25 24 24 24 24 23 23 24 24 23 23 23 23 23 22 21 21 21 21 21 21 22 22 23 23 23 23 23 23 22 22 22 21 21 21 21 21 22 22 23 24 25 25 26 26 26 26 25 25 24 24 23 23 23 24 24 24 24 24 24 23 24 26 27 28 28 28
25 25 25 25 24 24 24 23 23 23 23 23 22 22 22 22 21 21 21 21 21 21 21 21 22 22 22 22 22 22 22 22 22 22 21 21 21 21 21 21 22 23 24 24 24 24 24 24 25 25 25 24 23 22 22 23 23 24 24 24 25 25 24 24 24 25 26 27 27
25 25 25 25 25 24 24 24 24 23 23 23 22 22 22 21 21 21 21 21 21 21 21 21 21 21 22 22 22 22 22 22 22 22 21 21 21 21 21 21 21 22 23 23 23 24 24 24 24 24 24 23 23 22 22 23 23 24 24 24 25 25 25 24 23 23 23 25 25
24 24 24 24 24 24 24 24 24 24 24 23 22 22 21 21 21 21 21 21 21 20 20 20 20 20 21 21 21 22 22 22 22 22 22 22 22 22 21 21 21 21 22 22 23 23 24 23 23 23 23 22 22 22 22 22 23 23 24 24 24 24 24 23 23 22 22 22 23
23 23 23 23 23 24 24 23 23 24 24 23 23 22 22 21 20 20 20 20 20 20 20 20 20 20 20 20 21 21 22 22 22 22 22 22 22 22 22 22 21 21 21 22 22 23 23 23 22 22 22 22 21 21 21 21 22 22 22 23 23 23 23 23 23 22 21 21 21
23 23 22 22 22 22 23 23 22 23 23 23 23 23 22 22 21 21 20 20 20 20 20 20 20 20 20 20 20 21 21 21 21 21 21 20 20 20 21 22 22 22 22 22 22 23 23 22 22 21 21 20 20 20 20 20 20 21 21 22 22 22 22 22 22 21 20 20 20
23 23 22 22 22 22 22 22 22 22 22 22 22 22 22 22 22 22 21 20 20 20 20 19 19 19 20 19 19 19 20 20 20 19 19 18 19 19 21 22 23 23 23 22 22 21 21 21 21 20 20 20 19 19 19 19 19 20 20 21 21 21 21 21 21 20 20 19 19
23 23 22 22 21 21 20 20 20 20 20 21 21 21 22 22 22 22 21 21 20 20 20 19 19 19 19 19 19 19 19 19 19 18 18 18 18 19 21 22 23 24 23 23 21 20 20 20 20 20 20 19 19 19 19 19 19 19 19 20 20 21 21 21 20 20 19 19 19
23 23 22 21 21 20 20 19 19 19 19 19 20 20 20 21 21 21 21 21 20 20 20 19 19 19 20 20 20 19 19 19 19 19 18 18 19 19 20 21 22 23 22 22 21 20 19 19 19 19 19 19 19 19 19 19 19 19 19 19 20 20 20 21 20 20 19 19 18
22 22 21 21 20 20 19 19 18 18 18 18 19 19 19 19 20 20 20 20 19 20 20 20 20 20 20 20 20 20 20 20 20 20 20 19 19 19 20 21 21 22 21 21 20 20 19 18 18 18 18 18 18 19 19 19 19 19 20 20 19 20 20 20 20 20 19 19 18
22 21 20 20 19 19 19 18 18 18 18 18 18 18 18 18 19 18 18 18 19 19 20 19 19 19 19 20 20 20 20 21 21 21 21 20 19 19 19 20 21 21 21 20 19 19 18 18 18 18 17 17 17 18 18 19 19 19 20 20 20 20 20 20 20 20 19 19 18
21 20 19 19 19 18 18 18 17 17 17 17 17 17 17 17 17 17 17 17 18 18 19 19 18 18 18 19 19 20 20 21 21 21 21 21 20 19 18 18 19 20 20 20 19 18 17 17 17 17 17 17 16 17 17 18 19 19 19 19 20 20 20 20 21 20 20 19 18
20 19 18 18 18 17 17 17 17 17 17 17 16 16 16 16 15 15 15 16 16 17 18 18 17 17 17 17 18 18 19 20 20 20 21 21 20 19 18 17 17 18 19 19 18 17 16 16 16 17 17 17 17 16 17 18 18 18 19 19 20 20 21 21 21 21 21 20 19
19 18 18 17 17 16 16 16 17 17 17 16 15 15 15 15 15 14 14 15 15 16 16 16 16 15 15 15 16 16 17 17 18 19 19 20 20 19 19 17 17 17 18 18 18 17 16 15 16 16 17 17 17 17 17 18 19 19 19 19 20 21 21 21 21 21 21 21 20
18 18 17 17 16 16 16 16 16 16 16 15 15 15 15 15 15 14 14 15 15 15 15 15 15 14 14 14 14 15 15 16 16 17 17 18 19 20 19 18 17 17 17 17 18 18 17 16 16 15 15 15 16 17 18 18 18 19 19 20 20 21 21 21 21 21 21 21 20
18 18 17 16 16 16 16 16 15 15 15 15 15 15 15 15 15 15 15 15 14 14 14 14 14 13 13 13 13 14 14 14 15 15 16 17 18 20 20 20 18 17 17 17 17 17 17 17 16 16 15 15 15 16 17 17 18 18 18 19 20 20 20 21 21 21 21 21 20
18 17 16 16 16 16 15 15 15 15 15 15 15 15 14 14 15 15 15 15 14 14 14 14 13 12 12 13 14 14 14 14 14 14 14 15 17 19 20 20 19 17 17 17 17 17 17 17 17 16 15 15 14 15 16 16 17 17 18 19 19 20 20 20 21 21 22 21 21
17 17 16 16 16 16 15 15 15 15 15 15 14 14 14 14 15 15 15 15 15 15 15 14 13 12 13 14 14 14 14 14 14 13 13 14 16 18 19 20 19 18 17 17 16 16 16 17 17 17 16 15 14 14 15 16 17 17 18 19 19 20 20 20 21 21 22 22 22
17 16 16 16 16 16 15 15 15 14 14 14 14 14 14 15 15 15 15 16 16 15 14 13 13 13 14 15 15 15 15 15 14 13 13 14 15 17 18 19 20 19 18 17 17 16 16 16 17 17 17 16 14 14 15 16 16 17 18 19 20 20 20 20 21 21 21 22 23
16 16 16 16 15 15 15 14 14 13 13 13 14 14 15 15 16 16 16 15 15 14 13 12 13 14 15 15 15 15 15 15 14 14 13 13 14 15 17 18 20 20 19 18 17 17 16 16 16 17 17 16 15 15 15 15 16 17 18 19 19 20 20 20 20 20 21 21 22
16 16 16 15 15 15 14 13 13 13 13 13 14 15 15 16 16 15 15 14 14 13 13 13 14 14 15 15 15 15 15 15 15 14 14 13 13 14 15 17 19 20 20 19 18 17 17 16 16 16 17 16 15 15 14 15 15 16 17 18 18 19 19 19 19 19 20 20 21
15 16 16 15 15 14 13 13 13 13 13 14 14 15 15 15 15 14 14 14 13 13 14 14 15 15 16 16 16 15 15 14 14 14 13 13 12 12 14 16 18 19 19 19 18 18 17 16 15 16 16 16 15 14 14 14 14 15 16 16 17 18 18 18 18 18 19 19 19
15 15 15 15 15 14 13 13 13 13 13 14 15 15 15 14 14 14 14 14 13 13 14 14 15 15 15 15 15 15 15 14 13 13 13 13 12 12 13 14 16 17 18 18 17 17 17 16 15 15 15 15 14 13 13 13 13 14 14 15 16 16 17 16 16 16 17 17 18
14 15 15 15 14 14 13 13 13 13 14 14 15 14 14 14 14 14 14 13 12 13 13 14 14 14 14 14 14 14 14 13 13 13 13 13 13 13 13 13 14 16 17 17 17 17 17 16 14 14 14 14 13 13 12 12 13 13 14 14 14 15 16 15 15 15 15 16 16
14 14 15 15 14 14 13 13 13 13 14 14 14 14 14 14 14 13 13 12 12 12 13 13 13 14 14 14 14 13 13 13 13 13 13 14 14 14 13 12 13 15 16 17 17 17 18 17 15 14 14 14 13 13 12 12 12 13 13 14 14 15 15 15 15 15 15 15 15
13 14 14 15 14 14 13 13 13 14 14 14 14 14 14 13 13 13 12 12 12 13 13 13 14 14 15 14 14 13 12 12 12 12 13 14 15 15 14 13 13 15 16 17 17 18 18 19 17 16 15 15 14 14 13 13 13 13 13 13 14 15 15 15 15 15 15 16 15
12 13 13 14 14 13 13 13 13 14 14 14 13 13 13 13 13 13 12 12 13 13 13 13 13 14 14 13 12 12 11 11 12 13 13 14 14 15 15 15 15 15 16 17 17 18 19 19 19 18 17 16 15 14 14 14 14 14 14 14 14 15 15 15 15 15 16 16 16
11 12 12 13 13 13 13 13 13 13 13 13 13 13 12 12 12 12 12 12 12 12 12 12 13 12 12 12 11 11 11 12 12 13 14 14 15 15 16 16 17 17 17 17 17 18 19 20 20 19 18 17 16 15 15 15 15 15 16 16 16 16 16 16 16 16 17 17 17
10 11 11 12 12 13 13 13 13 12 12 12 12 12 12 12 12 11 11 11 11 11 11 11 11 11 11 11 10 10 11 11 12 13 14 15 15 16 16 17 17 17 17 17 17 18 19 20 20 20 19 18 17 17 16 17 17 17 17 18 18 18 18 17 17 17 18 19 19
10 10 10 11 11 12 12 12 12 12 11 11 11 11 11 11 10 10 11 11 11 11 10 10 10 10 10 10 10 10 10 11 12 13 14 15 16 17 17 18 18 18 18 17 17 18 19 20 21 21 20 19 19 18 18 18 18 18 19 19 19 19 18 19 19 19 19 20 20
Wind_Direction
61 63 64 65 66 66 65 64 63 62 62 61 60 59 59 58 56 54 53 52 50 48 47 46 44 43 42 43 43 44 45 46 47 47 47 48 48 47 47 46 46 47 49 52 55 56 56 56 56 52 44 35 31 30 30 33 40 41 42 54 60 43 5 345 327 309 292 280 271
60 63 65 66 66 67 66 64 63 62 61 61 60 59 58 58 56 54 53 52 51 50 49 48 47 45 44 43 44 45 45 45 46 48 49 49 50 50 50 50 51 52 54 56 59 59 59 58 58 55 51 48 44 41 40 44 49 50 50 53 58 61 56 43 25 15 6 354 335
60 62 64 65 65 65 64 62 62 61 61 60 60 59 58 57 56 55 54 53 53 52 51 49 48 46 44 44 45 45 46 46 47 48 48 49 50 50 51 52 53 55 56 58 60 61 61 60 59 56 52 49 46 43 41 43 49 53 52 48 49 50 50 44 35 26 18 10 3
58 60 61 62 62 62 62 62 61 60 60 60 59 59 59 58 57 56 55 55 54 52 51 49 48 47 45 45 44 45 46 47 47 47 47 48 49 50 51 52 53 55 57 58 60 61 61 61 60 57 54 50 47 43 42 45 50 54 53 50 47 47 46 44 39 34 29 24 20
57 59 60 61 62 62 62 62 61 60 60 60 60 59 59 58 57 56 56 55 53 52 52 52 50 49 48 47 46 45 45 46 45 46 46 47 48 49 50 51 52 54 56 57 58 59 60 61 60 57 53 50 46 43 43 48 52 54 55 53 49 46 44 43 41 39 36 34 32
56 58 59 61 61 62 61 61 61 61 60 61 60 59 58 57 56 56 55 54 54 55 54 53 52 51 50 49 48 47 46 45 44 45 45 46 47 48 49 50 51 52 54 56 57 59 59 59 58 55 52 48 43 41 43 49 53 55 55 52 49 47 45 43 42 41 40 39 38
56 57 58 59 61 61 61 61 61 61 60 60 59 58 57 57 57 56 56 57 57 56 55 54 52 51 50 49 49 48 46 44 43 43 44 45 46 47 47 48 49 50 52 54 56 58 58 58 56 53 50 46 42 39 40 46 52 55 54 51 49 47 45 43 43 42 42 42 41
57 57 58 59 60 61 61 61 60 60 59 58 57 56 56 56 56 57 57 57 55 55 55 55 54 52 51 50 49 48 47 45 44 43 43 43 44 45 46 47 47 48 51 53 56 57 58 57 56 53 49 46 42 39 39 42 49 53 54 51 48 46 45 44 44 43 43 43 42
56 56 58 59 60 60 61 61 61 60 59 57 56 55 55 55 56 56 55 54 54 55 55 55 55 54 54 52 51 50 49 47 45 43 42 43 43 44 45 46 46 47 49 52 55 57 58 58 56 53 50 47 43 40 40 43 47 51 52 50 48 47 45 44 44 44 43 43 42
54 55 56 57 58 59 60 61 61 61 59 57 55 54 54 54 55 55 55 55 55 55 54 54 54 54 53 53 52 51 50 49 47 46 44 43 43 44 45 46 47 47 48 51 54 56 58 57 56 54 51 49 45 42 42 44 46 48 48 47 47 46 45 43 43 43 43 42 41
54 54 55 55 56 58 59 59 59 59 59 57 55 53 52 52 52 53 55 57 56 54 52 52 53 52 52 52 52 52 52 50 49 47 45 44 44 45 46 47 48 49 50 51 53 55 56 57 56 54 52 49 47 44 42 43 44 46 46 46 45 45 44 42 41 41 41 41 40
54 54 55 56 56 57 57 57 56 57 57 56 54 52 50 49 49 51 53 54 53 52 52 52 52 51 51 51 52 53 53 51 49 47 45 44 43 44 46 47 49 51 52 53 53 54 54 55 55 54 52 50 47 44 42 41 42 43 44 44 44 43 43 42 40 39 39 41 40
54 54 55 55 55 55 55 54 54 54 54 54 53 51 50 48 48 49 49 50 51 51 52 52 52 51 50 50 52 53 52 51 50 48 46 44 43 43 44 46 49 51 54 55 55 54 54 53 53 53 51 49 47 45 42 41 41 41 41 42 42 42 42 42 40 38 38 41 41
54 53 53 54 54 54 53 52 51 51 51 51 51 50 49 48 47 47 47 48 49 50 50 51 52 51 51 51 51 52 52 51 50 48 47 45 43 42 43 45 48 51 54 56 56 56 55 53 52 51 50 48 46 45 44 42 41 40 40 41 41 42 43 43 41 39 37 38 40
52 51 51 52 52 52 51 50 49 49 49 48 48 49 48 47 46 46 47 47 48 49 49 49 49 50 51 52 52 52 52 52 50 49 47 45 43 42 42 43 46 50 53 55 57 57 56 54 52 51 49 48 46 45 44 43 42 41 41 41 42 43 43 44 43 40 37 36 36
50 49 49 49 50 50 50 49 49 49 48 48 48 48 47 46 46 46 46 46 48 49 48 48 48 49 50 51 52 52 52 51 50 49 47 45 43 42 41 42 44 47 51 54 56 57 57 55 53 51 49 48 46 45 44 43 42 41 41 42 43 43 43 44 44 41 38 34 33
49 48 48 48 48 48 48 49 49 49 49 50 50 49 48 48 48 48 47 47 48 49 49 49 49 49 49 49 50 50 50 49 48 47 46 45 44 42 41 41 42 45 48 52 55 56 57 56 54 52 49 48 46 45 44 43 42 41 41 42 42 42 42 42 43 42 38 34 31
49 48 49 48 48 47 48 49 50 50 51 52 52 52 52 51 51 51 50 50 50 51 51 51 51 51 50 49 48 47 47 46 46 45 45 45 44 43 42 41 41 42 44 48 52 55 56 56 55 52 50 48 46 46 44 43 41 41 41 41 41 41 41 41 41 41 38 34 30
49 49 49 48 48 48 48 50 50 51 52 53 54 55 55 54 54 54 53 52 52 52 53 52 52 52 51 49 48 46 45 44 44 44 45 45 45 44 42 41 40 40 41 43 47 51 55 56 55 52 49 47 46 45 44 42 41 40 40 39 39 39 39 39 39 39 37 34 30
49 49 49 49 50 50 51 51 52 53 53 55 56 56 56 56 56 55 53 52 52 53 54 53 53 52 52 51 49 47 45 44 44 44 45 47 47 46 43 41 40 39 39 39 41 45 50 54 54 51 48 45 43 42 42 41 40 39 38 38 38 37 37 37 38 38 37 35 31
50 50 50 51 52 53 53 54 55 55 56 56 56 56 56 56 56 55 54 53 53 54 54 53 52 52 51 50 49 47 45 44 43 43 44 46 48 48 46 43 40 39 39 39 38 40 44 49 51 50 46 43 40 39 38 38 38 37 37 37 37 36 36 36 36 36 35 34 31
50 51 52 54 55 56 57 57 58 58 58 58 58 58 57 57 56 56 56 56 56 55 54 53 52 52 51 50 49 47 46 46 45 44 44 45 48 50 49 45 41 39 39 39 37 37 39 43 47 47 45 40 37 35 34 34 34 33 33 33 34 35 35 35 34 33 33 33 31
51 52 54 55 57 58 59 59 60 60 60 59 59 58 58 57 57 57 58 58 57 57 55 54 54 52 51 51 50 49 48 47 46 46 45 45 47 49 50 47 43 40 38 38 37 37 36 38 41 43 42 39 35 32 31 30 30 29 29 28 29 30 31 31 31 30 30 30 30
51 52 54 56 58 59 60 60 61 60 60 59 59 59 59 58 58 58 58 58 58 57 56 56 55 54 53 51 50 49 48 47 46 46 45 46 47 49 50 49 45 41 38 36 37 38 38 37 36 37 38 37 35 32 30 29 28 27 26 25 24 24 25 26 26 26 26 25 26
51 52 54 56 58 60 60 60 60 59 59 59 60 60 60 59 58 58 59 59 58 57 56 55 55 54 53 51 50 49 48 46 45 44 44 44 46 49 50 50 48 44 39 36 36 37 39 39 35 32 32 33 33 32 31 29 28 28 26 25 23 22 21 21 22 22 22 21 22
49 51 53 55 58 59 59 59 59 59 59 60 60 60 60 59 59 59 60 60 59 58 57 55 54 52 51 50 50 49 47 46 44 43 42 42 44 46 48 49 49 46 41 37 35 35 36 36 33 29 26 28 28 28 28 28 28 27 26 25 24 22 20 19 19 19 19 19 19
46 47 50 54 57 58 58 58 59 59 59 59 59 59 60 60 60 60 60 60 60 60 58 56 53 51 50 50 50 49 47 45 43 42 41 41 41 43 44 46 47 46 42 37 35 34 33 32 30 27 24 23 25 26 26 26 26 26 25 24 22 21 19 18 17 16 16 16 16
42 44 47 52 55 56 56 56 57 56 56 57 58 59 60 61 60 60 60 60 61 60 59 56 54 52 52 52 52 51 48 44 42 41 41 42 42 42 43 43 43 42 39 37 35 34 32 30 28 26 24 21 24 25 25 25 25 24 23 21 19 18 17 16 15 14 13 13 13
40 41 45 49 52 54 54 54 54 54 55 56 58 60 61 61 61 60 59 59 59 59 57 56 55 56 56 58 57 54 49 44 41 41 42 43 43 43 43 41 39 37 36 34 34 33 31 29 27 26 24 23 25 27 27 26 25 23 20 18 16 15 14 13 12 12 11 10 9
39 40 43 48 51 53 53 53 53 54 55 57 59 60 61 61 60 58 58 57 58 57 57 57 58 60 61 61 60 56 50 44 40 39 41 43 44 44 44 42 37 32 30 29 30 31 30 29 27 25 24 23 26 28 27 26 24 21 19 16 14 13 12 11 10 9 8 7 7
38 40 43 48 51 53 53 54 55 56 57 59 60 61 61 60 58 57 56 56 56 58 59 60 61 62 63 63 61 56 50 44 39 38 39 41 43 45 45 42 37 31 27 26 26 26 26 26 26 24 23 22 23 25 26 25 23 20 17 15 13 12 11 10 9 8 6 5 5
39 40 44 48 51 53 55 56 57 58 59 60 60 60 59 59 58 57 56 56 56 57 58 59 60 61 62 62 59 56 50 44 39 36 37 39 42 43 44 42 37 30 24 24 24 23 22 22 23 23 21 20 20 21 24 24 21 19 16 14 12 11 10 9 8 6 5 4 4
41 42 45 49 52 54 56 58 59 60 61 61 60 59 58 58 58 58 57 56 57 57 58 58 58 58 59 59 57 55 50 44 39 36 36 38 41 44 43 41 38 29 23 22 23 22 20 20 21 22 20 18 17 18 20 21 19 16 14 13 11 9 8 7 6 5 4 3 3
43 44 47 51 53 56 58 60 61 62 62 61 60 58 57 57 57 56 56 57 59 61 61 60 59 58 58 58 56 54 51 45 39 36 35 37 41 44 43 40 36 29 23 21 23 22 21 21 23 22 20 18 17 16 17 18 17 14 12 10 9 7 6 6 5 4 3 2 1
44 46 49 51 54 57 59 61 63 63 63 61 59 59 58 57 56 56 56 58 62 64 65 64 63 61 60 58 56 53 49 45 39 36 35 37 40 42 42 39 36 31 25 21 23 23 22 23 25 25 22 19 18 16 16 16 14 12 9 7 6 5 4 4 4 3 2 1 0
46 47 49 51 54 56 59 62 63 64 63 60 59 58 58 58 57 58 59 61 65 66 66 65 64 62 60 57 55 51 48 44 40 37 36 37 38 39 39 38 35 31 25 20 22 23 22 22 26 27 24 20 19 18 16 15 12 9 7 5 3 2 2 2 2 2 1 0 359
48 48 49 50 53 56 59 61 63 63 62 60 59 59 58 58 59 59 61 63 64 64 64 63 62 61 59 57 55 53 50 47 44 41 39 38 36 35 35 35 33 30 25 19 20 21 21 21 24 25 23 20 18 17 15 12 10 8 6 3 1 0 360 0 1 1 0 359 356
50 48 48 49 51 55 58 61 61 61 61 61 61 60 60 60 60 60 61 61 61 60 61 61 60 60 59 59 59 58 55 51 48 44 41 38 35 32 31 32 31 29 25 19 19 20 20 20 22 22 22 21 18 15 12 10 8 7 5 3 0 359 359 359 359 359 359 358 355
51 49 48 48 51 54 57 59 60 60 60 61 62 62 62 61 61 61 62 62 61 60 59 58 58 59 60 60 60 60 57 53 48 44 41 37 33 31 30 30 29 27 25 20 18 18 19 20 20 21 21 20 19 15 12 9 7 6 5 2 360 358 358 359 358 357 357 357 355
52 50 48 48 50 53 57 59 60 61 62 62 63 63 62 62 64 67 68 68 67 64 62 60 59 59 59 59 59 57 54 50 46 42 39 36 33 32 31 30 28 26 24 21 18 17 18 19 19 20 21 20 18 15 12 9 7 6 4 2 360 357 356 356 356 355 355 354 354
54 52 51 50 51 54 57 60 63 65 66 65 65 65 66 68 71 73 75 76 74 72 69 66 62 60 58 58 56 54 51 47 43 39 36 34 32 32 31 30 27 25 22 20 17 17 18 18 18 19 19 19 17 15 12 9 7 5 3 1 359 357 354 353 353 353 353 353 352
Height
768 767 767 768 769 769 770 771 772 772 772 772 772 773 773 773 773 773 773 773 772 772 772 772 772 771 770 769 768 767 766 765 764 763 762 761 760 759 758 757 756 755 754 753 752 751 750 750 749 749 750 750 751 750 750 749 747 746 745 744 745 745 746 746 747 747 747 747 747
770 770 770 770 771 771 772 773 773 774 774 774 774 774 774 774 774 774 774 773 773 773 773 772 772 772 771 770 769 768 767 766 765 764 763 762 761 760 759 758 757 756 755 753 752 751 751 750 749 749 749 750 750 751 751 750 747 746 745 744 743 743 743 744 744 745 745 745 745
773 773 772 772 773 773 773 774 775 775 775 775 775 775 775 775 775 775 775 775 774 774 773 773 773 773 772 771 770 769 768 767 766 765 764 763 762 761 760 759 758 757 755 754 753 752 751 750 749 749 749 750 751 752 752 751 748 746 745 745 744 743 743 744 744 744 744 744 743
775 775 775 774 774 775 775 776 776 776 776 777 776 776 776 776 776 776 776 775 775 774 774 774 774 773 773 772 772 770 769 768 767 766 765 764 763 762 761 760 759 757 756 755 754 752 751 750 749 749 750 751 752 753 754 752 750 747 746 746 745 745 745 745 745 745 745 744 744
777 777 777 776 777 777 777 778 778 778 778 778 777 777 777 777 777 777 777 776 776 776 775 775 775 774 774 773 772 772 770 770 769 768 767 766 765 764 763 761 760 759 758 757 755 753 751 750 749 750 751 753 754 755 755 754 751 749 747 747 747 747 746 746 746 745 745 745 745
780 779 779 778 779 779 779 779 779 779 779 779 779 779 779 779 779 778 778 777 777 777 776 776 776 775 775 774 773 773 772 771 770 769 768 767 766 765 764 763 762 761 760 758 756 754 752 750 750 751 753 755 756 757 756 755 752 750 748 748 748 748 748 747 747 746 746 745 745
782 781 781 781 780 781 781 781 781 781 781 780 780 780 780 780 780 779 779 778 778 777 777 777 777 776 776 775 774 773 773 772 771 770 769 768 767 767 766 765 764 762 761 759 757 755 753 752 752 754 756 757 758 758 757 756 753 751 749 750 750 750 750 749 748 747 746 746 745
783 783 783 783 783 783 783 783 782 782 782 782 782 782 782 781 781 780 780 779 779 779 779 778 778 777 777 776 775 774 773 773 772 771 771 770 769 768 767 767 765 764 762 760 758 756 754 754 755 756 758 759 759 759 758 757 754 752 751 752 752 752 751 750 749 748 747 747 747
785 785 785 785 785 785 785 784 784 783 783 783 783 783 783 782 782 781 781 780 780 780 780 780 779 778 777 777 776 775 774 774 773 773 772 772 771 770 769 768 767 766 764 762 760 757 756 756 757 759 760 760 760 760 760 758 755 754 753 754 754 753 752 752 751 750 749 748 748
787 787 787 787 787 787 786 786 785 785 785 785 785 784 784 783 783 782 782 782 782 781 781 780 780 779 778 777 776 775 775 775 775 774 774 773 772 771 770 770 768 767 765 763 761 759 758 759 760 761 761 761 761 761 760 759 757 756 756 755 755 755 754 753 752 751 750 750 750
790 790 789 789 789 788 788 787 787 786 786 786 786 785 785 785 784 784 784 783 783 782 782 781 780 779 778 778 777 777 776 776 776 776 775 775 774 773 772 771 770 768 767 765 763 761 761 761 762 762 762 762 762 762 762 761 759 758 757 757 756 755 755 753 752 751 751 751 751
792 791 791 790 790 790 789 788 788 787 787 787 787 786 786 786 785 785 785 784 783 783 782 782 781 780 780 779 778 778 777 777 777 777 776 776 775 775 774 773 771 769 767 766 765 764 764 763 763 763 763 763 763 763 763 762 761 759 758 758 757 756 755 754 753 752 752 752 751
793 793 792 792 791 791 790 790 789 789 788 788 787 787 787 787 787 786 786 785 784 784 783 782 782 781 781 780 780 779 779 778 778 778 777 777 777 776 775 774 772 770 769 767 767 766 765 765 764 764 764 765 765 765 764 763 762 761 760 759 757 756 756 755 755 755 754 753 752
794 794 793 793 792 792 791 791 790 790 789 789 788 788 788 787 787 787 786 786 785 785 784 784 783 783 782 782 781 781 780 780 779 779 778 778 778 777 776 775 773 772 770 769 768 767 766 766 765 765 766 766 766 766 765 764 763 762 761 760 759 758 757 757 757 756 755 754 753
795 795 795 794 793 793 792 792 791 791 790 790 789 789 788 788 788 787 787 786 786 785 785 785 784 784 783 783 782 782 781 781 780 780 779 779 779 778 777 776 775 773 772 771 769 768 767 767 767 767 767 767 767 766 766 765 764 763 763 762 761 760 759 759 758 757 756 755 755
796 796 796 795 795 794 793 793 792 792 791 791 790 790 789 789 789 788 788 787 787 787 786 786 785 785 785 784 784 783 782 782 781 780 780 780 780 779 778 777 776 775 773 771 770 769 768 768 768 768 768 768 768 768 767 767 766 765 765 764 762 762 761 760 759 758 758 757 756
797 797 797 796 796 795 795 794 794 793 793 792 792 791 791 790 790 790 789 789 788 788 787 787 786 786 786 785 785 784 783 783 782 782 781 781 781 781 780 778 777 775 774 772 771 770 769 769 769 770 770 770 770 769 769 769 768 767 766 765 764 763 762 761 760 759 759 758 758
798 798 797 797 797 796 796 795 795 795 794 794 793 792 792 792 791 791 790 790 790 789 789 788 788 787 787 786 786 785 785 784 784 783 783 782 782 781 780 779 777 776 774 773 772 771 771 771 771 771 771 771 771 771 771 770 770 769 767 766 765 764 763 762 761 761 760 760 759
800 799 798 798 798 797 797 797 796 796 795 795 794 794 793 793 792 792 792 791 791 790 790 790 789 789 788 788 787 787 786 785 785 784 783 783 782 781 780 780 778 777 776 775 774 774 773 773 773 773 773 773 772 772 772 771 770 770 768 767 766 765 764 763 762 762 761 761 761
801 800 800 799 799 798 798 798 797 797 797 796 796 795 795 794 794 793 793 792 792 792 791 791 790 790 789 789 788 787 787 786 785 785 784 783 782 781 781 780 779 778 777 777 776 776 775 775 775 774 774 774 774 773 773 772 771 770 769 768 767 766 765 764 764 763 762 762 762
802 802 801 801 800 800 799 799 798 798 797 797 797 796 796 795 795 794 794 794 793 793 792 792 791 791 790 790 789 788 787 787 786 785 784 783 782 781 781 781 781 780 779 779 778 778 777 777 777 776 776 775 775 774 774 773 772 771 770 769 768 767 766 765 765 764 763 763 762
803 803 802 802 801 801 800 800 799 799 798 798 797 797 796 796 795 795 795 795 794 793 793 792 792 792 791 790 790 789 788 787 786 785 784 783 783 782 782 782 782 781 781 780 780 779 779 779 778 778 777 777 776 775 775 774 772 771 770 770 769 767 767 766 765 765 764 764 763
805 804 803 803 802 802 801 800 800 799 799 798 798 797 797 797 796 796 796 795 795 794 794 793 793 792 792 791 790 790 789 788 787 786 785 785 784 783 783 783 783 783 782 782 782 781 780 780 779 779 778 778 777 776 775 774 773 772 771 770 769 768 767 767 766 765 765 764 764
805 805 804 804 803 802 802 801 801 800 800 799 799 798 798 798 797 797 796 796 795 795 794 794 793 793 793 792 791 791 790 789 788 787 787 786 785 785 784 784 784 784 784 783 783 783 782 781 780 780 779 778 777 777 776 775 774 772 772 770 770 769 768 767 766 765 765 765 764
806 806 805 804 804 803 803 802 801 801 800 800 800 799 799 798 798 797 797 796 796 795 795 794 794 794 793 793 792 792 791 790 789 789 788 787 786 786 785 785 785 785 785 785 784 784 783 782 781 780 780 779 778 777 776 775 774 773 772 771 770 769 768 767 766 766 765 765 765
807 806 806 805 805 804 803 803 802 802 802 801 801 800 800 799 799 798 797 797 796 796 796 795 795 794 794 793 793 792 792 791 791 790 789 788 787 787 786 786 786 786 786 786 785 785 784 783 782 781 780 779 778 777 776 775 774 773 772 771 771 770 769 768 767 767 766 765 765
807 807 806 806 805 804 804 803 803 802 802 802 801 801 800 800 799 798 798 797 797 797 796 796 795 795 795 794 794 793 793 792 792 791 790 789 788 787 787 786 786 787 787 786 786 785 784 783 782 782 780 779 778 777 776 775 775 774 773 772 771 770 770 769 768 767 767 766 765
808 807 807 806 805 805 804 804 803 803 802 802 801 801 800 800 799 799 798 798 798 797 797 797 796 796 795 795 794 794 793 793 792 792 791 790 789 788 787 787 787 787 787 787 786 785 784 784 783 782 781 780 779 778 777 776 775 775 774 773 772 771 770 769 768 767 767 766 765
808 807 807 806 805 805 805 804 803 803 803 802 802 801 801 800 800 799 799 799 798 798 797 797 797 797 796 795 795 795 794 794 793 793 792 791 790 789 788 788 787 787 788 787 786 785 785 784 783 782 781 780 779 778 777 777 776 775 774 773 772 771 770 769 768 767 766 766 765
808 808 807 806 806 805 805 804 804 804 803 803 802 802 801 801 800 800 800 799 799 799 798 798 798 797 797 796 796 795 795 794 794 793 793 792 791 790 789 788 788 788 788 787 786 786 785 784 783 782 782 781 780 779 778 777 776 775 774 773 772 771 770 769 768 767 766 766 765
809 808 807 807 806 806 805 805 805 804 804 803 803 802 802 801 801 801 800 800 800 800 799 799 798 798 797 797 796 796 795 795 794 794 793 792 792 791 790 789 788 788 788 787 787 786 785 784 783 783 782 781 780 779 778 777 776 775 775 774 773 772 771 770 769 768 767 766 765
809 809 808 807 807 806 806 806 805 805 804 804 803 803 802 802 802 801 801 801 800 800 800 799 799 798 798 797 797 796 796 795 795 794 794 793 792 792 791 790 789 788 788 788 787 786 785 785 784 783 782 781 780 779 779 778 777 776 775 775 774 773 772 771 770 769 768 767 766
810 809 808 808 807 807 807 806 806 805 805 804 804 803 803 802 802 802 802 801 801 800 800 800 799 799 798 798 797 797 796 796 795 795 794 794 793 792 792 791 790 789 789 789 788 787 786 785 784 783 783 782 781 780 779 778 778 777 776 775 775 774 773 772 771 770 769 768 768
810 810 809 808 808 807 807 807 806 806 805 805 804 804 803 803 803 802 802 802 802 801 801 800 800 800 799 799 798 797 797 797 796 796 795 794 794 793 792 792 791 790 790 790 789 788 787 786 785 784 783 782 782 781 780 779 778 778 777 776 775 775 774 773 772 771 770 770 769
811 810 810 809 809 808 808 807 807 806 806 805 805 805 804 804 803 803 803 803 802 802 802 801 801 800 800 799 799 798 798 797 797 796 796 795 795 794 793 793 792 791 790 790 790 789 787 786 785 784 784 783 782 781 780 780 779 778 777 777 776 775 775 774 773 772 771 770 769
811 811 810 810 809 809 808 808 807 807 806 806 806 805 805 805 804 804 804 803 803 803 802 802 801 801 800 800 800 799 799 798 798 797 797 796 795 795 794 794 793 791 791 791 790 789 788 787 786 785 784 783 782 781 781 780 779 778 778 777 776 775 775 774 773 772 771 771 770
812 812 811 810 810 809 809 808 808 807 807 807 806 806 806 805 805 805 804 804 803 803 803 802 802 802 801 801 800 800 800 800 799 799 798 797 796 796 795 794 793 792 791 791 790 789 788 787 786 785 784 783 782 781 780 780 779 778 777 777 776 775 775 774 773 772 771 770 770
812 812 811 811 810 810 809 809 808 808 807 807 807 807 806 806 805 805 805 805 804 804 803 803 803 802 802 802 802 801 801 801 800 799 799 798 797 797 796 795 794 792 791 791 790 790 788 787 786 785 784 783 782 781 780 780 779 778 777 777 776 775 774 773 772 772 771 770 770
813 812 812 811 811 810 810 809 809 808 808 808 807 807 807 806 806 806 806 805 805 805 804 804 804 803 803 803 802 802 802 801 800 800 799 798 798 797 796 795 794 792 792 791 790 790 789 787 786 785 784 783 782 781 780 780 779 778 777 776 775 775 774 773 772 772 771 770 769
813 812 812 811 811 810 810 810 809 809 809 808 808 808 807 807 807 807 807 806 806 806 805 805 805 804 804 803 803 803 802 801 801 800 799 798 798 797 796 795 794 793 792 791 790 790 789 787 786 785 784 783 782 781 780 779 779 778 777 776 775 774 773 772 772 771 770 769 769
813 813 812 812 811 811 810 810 810 809 809 809 809 808 808 808 808 808 808 807 807 807 807 806 806 805 805 804 803 803 802 802 801 800 799 799 798 797 796 795 794 793 792 791 790 790 789 787 786 785 784 783 782 781 780 779 778 777 776 775 775 774 773 772 771 770 770 769 768